STARLINK-34447, 64710

Orbit data source: Space-Track

STARLINK-34447, 64710 is a payload satellite owned by SpaceX/Seattle (US) in LEO that was launched on Sat, 28 Jun 2025 UTC via an FALCON 9 launch vehicle from the Air Force Western Test Range (AFWTR). Payload-class satellites include a variety of spacecraft equipped with specific instruments for various scientific and technological missions. These include communications satellites like Starlink; space stations such as the ISS; scientific satellites like the Hubble; Earth observation satellites from companies like Planet Labs, Umbra, and HawkEye 360; GPS; miniature CubeSats for education and research; and military/defense satellites.

Loading next visibility...
Identifier
64710, 2025-142Q
Orbit
LEO
Country
Flag of USUS
Related business
Manufacturer
SpaceX/Seattle
Mission
Operational Commercial Communications
Bus & Motor
STARLINK V2MO, Unknown motor
Mass
575 kg wet, ~530 kg dry
Launch date (UTC)
2025-06-28 (1 year ago)
Launch vehicle
FALCON 9
Launch site
Air Force Western Test Range (AFWTR)
Object type
Payload
Rocket body
Debris
Shape & HBR
Box + 1 Pan, 17.7 m
Radar Cross Section
41.120 m², Large (>1 m²)

Expand to show TLE details & history
Last TLE update: 14 hours ago

TLE from 14 hours ago
0 STARLINK-34447
1 64710U 25142Q   26264.13563796  .00018166  00000-0  63463-3 0  9999
2 64710  70.0017 179.3631 0002466 263.7806  96.3088 15.29592757 68982
Epoch: 2026-09-21T03:15Z
TLE epoch observation values (Epoch: 2026-09-21T03:15:19.119Z)
Latitude
-0.00007°
Longitude
130.51361°
Altitude
479.673 km
Speed
7.626 km/s
True Right ascension
11h 57m 27s
True Declination
0° 00' 00"
Sunlit
Object was in daylight at epoch
Visualization orbit readout
Latitude
Unknown
Longitude
Unknown
Altitude
Unknown
Speed
Unknown
Apparent Right ascension
Unknown
Apparent Declination
Unknown
Sunlit
N/A
Visualization observer readout
Local Sidereal Time
09:57:20
Azimuth
Unknown
Elevation
Unknown
Doppler factor
Unknown
Orbital elements
Apogee altitude
476.638 km
Perigee altitude
473.258 km
Semi-major axis
6,853.085 km
Eccentricity
0.00025
Inclination
70.0017°
RAAN
179.3631°
Arg. of periapsis
263.7806°
True anomaly
96.33689°
Mean anomaly
96.3088°
Eccentric anomaly
96.32284°
Mean motion
3.82573 °/min
Orbital period
94.1 mins
BSTAR
0.00063463
Loading maneuver chart data...
Computing Atmospheric mass density...
Loading historical data...
Loading historical data...
Loading historical data...
Loading historical data...
Loading historical data...
Loading historical data...
Loading historical data...

Documentation

Showing up to 5 results
|